Back to catalog

THORAD AGENA D DEB

AliveSSO
NORAD 4717·DEBRIS·🇺🇸 United States

Launched Apr 8, 1970 from Vandenberg Space Force Base

Loading…

Next Passes (next 24 hours)

TLE

FreshSource: Space-Track

Epoch: Sep 14, 2026, 04:03 UTC

1 04717U 70025CB  26257.16896708  .00000051  00000-0  14195-3 0  9999
2 04717 100.0024 333.0354 0002714  33.5223 355.6479 13.54938696785464

Track THORAD AGENA D DEB in real time with AllMySat

Download on the App Store